• Processing (Info)

  • MPEC 2014-M32 : 2014 MZ5

    The following Minor Planet Electronic Circular may be linked-to from your own Web pages, but must not otherwise be redistributed electronically.

    A form allowing access to any MPEC is at the bottom of this page.


    Read MPEC 2014-M31 Read MPEC 2014-M33


    M.P.E.C. 2014-M32                                Issued 2014 June 25, 13:12 UT
    
         The Minor Planet Electronic Circulars contain information on unusual
             minor planets and routine data on comets.  They are published
       on behalf of Commission 20 of the International Astronomical Union by the
              Minor Planet Center, Smithsonian Astrophysical Observatory,
                              Cambridge, MA 02138, U.S.A.
    
                 Prepared using the Tamkin Foundation Computer Network
    
                                  MPC@CFA.HARVARD.EDU
                URL https://www.minorplanetcenter.net/    ISSN 1523-6714
    
                                       2014 MZ5
    
    Observations:
         K14M05Z* C2014 06 21.25484 16 41 54.15 -08 28 41.8          18.8 VqEM032G96
         K14M05Z  C2014 06 21.26422 16 41 50.73 -08 31 47.7          19.1 VqEM032G96
         K14M05Z  C2014 06 21.27987 16 41 45.03 -08 36 58.1          19.0 VqEM032G96
         K14M05Z  C2014 06 21.28410 16 41 43.50 -08 38 22.1          19.2 VqEM032G96
         K14M05Z  C2014 06 21.28967 16 41 41.49 -08 40 12.6          19.0 VqEM032G96
         K14M05Z  C2014 06 21.30080 16 41 37.41 -08 43 53.4          18.9 VqEM032G96
         K14M05Z KC2014 06 21.33126 16 41 26.50 -08 53 57.0          19.1 RoEM032291
         K14M05Z KC2014 06 21.33181 16 41 26.30 -08 54 07.7          19.2 RoEM032291
         K14M05Z KC2014 06 21.33234 16 41 26.13 -08 54 17.9          19.8 RoEM032291
         K14M05Z  C2014 06 21.33258 16 41 25.95 -08 54 23.7          19.0 VqEM032G96
         K14M05Z  C2014 06 21.33331 16 41 25.68 -08 54 38.1          19.0 VqEM032G96
         K14M05Z  C2014 06 21.33405 16 41 25.40 -08 54 52.9          19.1 VqEM032G96
         K14M05Z  C2014 06 21.33478 16 41 25.16 -08 55 07.5          19.3 VqEM032G96
         K14M05Z KC2014 06 21.47254 16 40 44.87 -09 38 12.4          19.3 RtEM032474
         K14M05Z KC2014 06 21.47316 16 40 44.66 -09 38 24.0          19.1 RtEM032474
         K14M05Z KC2014 06 21.47378 16 40 44.45 -09 38 36.9          19.1 RtEM032474
         K14M05Z KC2014 06 21.47439 16 40 44.21 -09 38 49.1          18.9 RtEM032474
         K14M05Z KC2014 06 21.47501 16 40 43.99 -09 39 01.7          19.4 RtEM032474
         K14M05Z KC2014 06 21.93587 16 38 15.31 -12 16 16.6                qEM032J95
         K14M05Z KC2014 06 21.95090 16 38 09.89 -12 21 20.1                qEM032J95
         K14M05Z KC2014 06 21.95635 16 38 07.95 -12 23 09.3          19.5 RqEM032J95
         K14M05Z KC2014 06 22.33402 16 35 59.50 -14 29 51.1          18.8 RoEM032291
         K14M05Z KC2014 06 22.33452 16 35 59.31 -14 30 01.4          19.0 RoEM032291
         K14M05Z KC2014 06 22.57646 16 34 37.82 -15 48 59.3          19.1 RtEM032474
         K14M05Z KC2014 06 22.57708 16 34 37.58 -15 49 11.8          19.1 RtEM032474
         K14M05Z KC2014 06 22.57770 16 34 37.37 -15 49 24.2          19.3 RtEM032474
         K14M05Z KC2014 06 22.57831 16 34 37.15 -15 49 36.5          18.9 RtEM032474
         K14M05Z KC2014 06 22.57893 16 34 36.90 -15 49 48.7          19.3 RtEM032474
         K14M05Z KC2014 06 22.57955 16 34 36.67 -15 50 01.4          19.2 RtEM032474
         K14M05Z KC2014 06 22.98019 16 32 23.06 -18 08 23.7                qEM032J95
         K14M05Z KC2014 06 22.99432 16 32 17.66 -18 13 09.5          18.9 RqEM032J95
         K14M05Z  C2014 06 23.21901 16 31 03.00 -19 28 29.3          19.5 VqEM032I52
         K14M05Z  C2014 06 23.21931 16 31 02.90 -19 28 36.1          20.2 VqEM032I52
         K14M05Z  C2014 06 23.21961 16 31 02.76 -19 28 41.6          19.7 VqEM032I52
         K14M05Z  C2014 06 23.21990 16 31 02.65 -19 28 48.5          19.0 VqEM032I52
         K14M05Z  C2014 06 23.29430 16 30 33.24 -19 53 54.9          20.4 VqEM032G96
         K14M05Z  C2014 06 23.30040 16 30 30.62 -19 55 49.4          19.0 VqEM032G96
         K14M05Z  C2014 06 23.30649 16 30 28.21 -19 57 51.2          18.8 VqEM032G96
         K14M05Z  C2014 06 23.31258 16 30 25.80 -19 59 53.1          19.2 VqEM032G96
         K14M05Z  C2014 06 23.32996 16 30 18.96 -20 05 41.2          19.4 VqEM032I52
         K14M05Z  C2014 06 23.33026 16 30 18.81 -20 05 47.1          19.6 VqEM032I52
         K14M05Z  C2014 06 23.33056 16 30 18.72 -20 05 54.0          19.6 VqEM032I52
         K14M05Z  C2014 06 23.33086 16 30 18.59 -20 05 59.9          19.9 VqEM032I52
         K14M05Z  C2014 06 24.21512 16 25 08.18 -25 00 07.7          19.2 VqEM032I52
         K14M05Z  C2014 06 24.21553 16 25 08.08 -25 00 16.3          19.7 VqEM032I52
         K14M05Z  C2014 06 24.21594 16 25 07.95 -25 00 22.2          19.3 VqEM032I52
         K14M05Z  C2014 06 24.21636 16 25 07.74 -25 00 31.1          19.0 VqEM032I52
         K14M05Z KC2014 06 25.22597 16 18 50.81 -30 25 04.0          19.4 RoEM032291
         K14M05Z KC2014 06 25.22704 16 18 50.36 -30 25 23.8          19.2 RoEM032291
         K14M05Z  C2014 06 25.28397 16 18 25.55 -30 43 10.7          19.1 VqEM032G96
         K14M05Z  C2014 06 25.28429 16 18 25.40 -30 43 16.8          19.1 VqEM032G96
    
    Observer details:
    291 LPL/Spacewatch II.  Observer R. A. Mastaler.  1.8-m f/2.7 reflector + CCD.
    474 Mount John Observatory, Lake Tekapo.  Observers A. C. Gilmore,
        P. M. Kilmartin.  Measurer P. M. Kilmartin.  1.0-m f/7.7 reflector + CCD.
    G96 Mt. Lemmon Survey.  Observers R. A. Kowalski, E. J. Christensen.
        Measurers E. J. Christensen, A. R. Gibbs, A. D. Grauer, R. E. Hill,
        J. A. Johnson, R. A. Kowalski, S. M. Larson, R. J. Sanders, F. C. Shelly.
        1.5-m reflector + CCD.
    I52 Steward Observatory, Mt. Lemmon Station.  Observer A. R. Gibbs.  Measurers
        E. J. Christensen, A. R. Gibbs, A. D. Grauer, R. E. Hill, J. A. Johnson,
        R. A. Kowalski, S. M. Larson, R. J. Sanders, F. C. Shelly.  1.0-m
        reflector + CCD.
    J95 Great Shefford.  Observer P. Birtwhistle.  0.40-m f/6.0 Schmidt-Cassegrain
        + CCD.
    
    Orbital elements:
    2014 MZ5                                                 Earth MOID = 0.0615 AU
    Epoch 2014 May 23.0 TT = JDT 2456800.5                  MPC
    M 338.56570              (2000.0)            P               Q
    n   0.74117909     Peri.  177.47230     -0.03192627     +0.92441364
    a   1.2092626      Node    90.50843     -0.92355289     +0.11809676
    e   0.1086527      Incl.   22.33788     -0.38213972     -0.36264663
    P   1.33           H   24.0           G   0.15           U   6
    Residuals in seconds of arc
    140621 G96  0.1+  0.3-    140621 474  0.1+  0.1+    140623 I52  0.2-  1.0-
    140621 G96  0.0   0.1-    140621 J95  0.5-  0.2+    140623 G96 (2.7+  8.3-)
    140621 G96  0.1-  0.0     140621 J95  0.0   0.4-    140623 G96  0.1-  0.4-
    140621 G96  0.0   0.1-    140621 J95  0.6+  0.3+    140623 G96  0.1-  0.0
    140621 G96  0.2+  0.1-    140622 291  0.2-  0.1-    140623 G96  0.1-  0.3+
    140621 G96  0.4-  0.1-    140622 291  0.3-  0.3-    140623 I52  0.1-  0.4+
    140621 291  0.0   0.3-    140622 474  0.2+  0.3-    140623 I52  0.5-  0.5+
    140621 291  0.1-  0.1-    140622 474  0.1+  0.3-    140623 I52  0.1-  0.4-
    140621 291  0.2+  0.3+    140622 474  0.4+  0.2-    140623 I52  0.3-  0.3-
    140621 G96  0.0   0.0     140622 474  0.4+  0.2-    140624 I52  0.6-  0.1+
    140621 G96  0.1-  0.0     140622 474  0.1+  0.0     140624 I52  0.4+  0.4-
    140621 G96  0.3-  0.1-    140622 474  0.1+  0.2-    140624 I52 (0.9+  1.8+)
    140621 G96  0.0   0.2-    140622 J95  0.4+  0.5+    140624 I52  0.4+  1.2+
    140621 474  0.1-  0.1+    140622 J95  0.1-  0.1-    140625 291  0.1-  0.2-
    140621 474  0.1+  0.9+    140623 I52  0.2-  0.2+    140625 291  0.1+  0.2+
    140621 474  0.3+  0.3+    140623 I52  0.0   0.6-    140625 G96  0.0   0.2-
    140621 474  0.0   0.3+    140623 I52  0.3-  0.0     140625 G96  0.1-  0.3-
    
    Ephemeris:
    2014 MZ5                 a,e,i = 1.21, 0.11, 22                  q = 1.0779
    Date    TT    R. A. (2000) Decl.     Delta      r     Elong.  Phase     V
    2014 05 26    17 55 26.9 +47 36 28   0.1944  1.0870   107.4    62.8    22.9
    ...
    2014 06 10    17 26 43.9 +32 53 00   0.1083  1.0795   124.0    51.2    21.2
    ...
    2014 06 18    16 57 43.6 +08 04 24   0.07347 1.0780   146.5    31.3    19.8
    ...
    2014 06 24    16 26 25.4 -23 47 11   0.06687 1.0780   156.4    22.2    19.4
    2014 06 25    16 20 16.5 -29 11 38   0.06814 1.0781   154.0    24.5    19.5
    2014 06 26    16 13 51.1 -34 20 06   0.07005 1.0782   150.8    27.4    19.6
    ...
    2014 07 02    15 29 44.5 -57 19 25   0.09186 1.0795   131.3    45.0    20.7
    ...
    2014 07 10    14 20 08.6 -71 25 33   0.1347  1.0828   116.2    57.4    21.9
    ...
    2014 07 25    12 20 40.7 -79 38 55   0.2233  1.0934   104.5    64.1    23.2
    
    A. U. Tomatic                (C) Copyright 2014 MPC           M.P.E.C. 2014-M32
    

    Read MPEC 2014-M31 Read MPEC 2014-M33


    MPEC number:

    Enter an MPEC number in one of the following forms:

    • 1997-B01 (the full form)
    • J97B01 (the packed version of the full form)
    • B01 (the abbreviated form)